This is the latest recevied weather packets stored in our database for station/object R1ZCU-14. If no packets are shown the sender has not sent any weather packets the latest 1 day(s).
| Time | Temp. | Humidity | Pressure | Rain* | Wind** | Luminosity | Snow |
|---|---|---|---|---|---|---|---|
| 1778040170 | 5.56° C | 64% | 995.8 hPa | - | - | - | - |
| 1778039570 | 4.44° C | 70% | 995.9 hPa | - | - | - | - |
| 1778038969 | 6.11° C | 60% | 995.6 hPa | - | - | - | - |
| 1778038369 | 6.67° C | 57% | 995.3 hPa | - | - | - | - |
| 1778037168 | 5° C | 59% | 995.5 hPa | - | - | - | - |
| 1778036567 | 6.67° C | 49% | 995.4 hPa | - | - | - | - |
| 1778035967 | 6.67° C | 50% | 995.1 hPa | - | - | - | - |
| 1778035366 | 7.78° C | 49% | 994.9 hPa | - | - | - | - |
| 1778034766 | 6.67° C | 51% | 994.7 hPa | - | - | - | - |
| 1778034165 | 6.11° C | 54% | 994.7 hPa | - | - | - | - |
| 1778033565 | 5.56° C | 54% | 994.7 hPa | - | - | - | - |
| 1778032364 | 3.33° C | 67% | 994.7 hPa | - | - | - | - |
| 1778031763 | 2.78° C | 73% | 994.8 hPa | - | - | - | - |
| 1778031163 | 2.22° C | 77% | 994.8 hPa | - | - | - | - |
| 1778029962 | 2.22° C | 76% | 994.6 hPa | - | - | - | - |
| 1778028761 | 2.22° C | 75% | 994.6 hPa | - | - | - | - |
| 1778027560 | 2.22° C | 72% | 994.5 hPa | - | - | - | - |
| 1778026359 | 1.67° C | 68% | 994.3 hPa | - | - | - | - |
| 1778023957 | 1.67° C | 67% | 994.2 hPa | - | - | - | - |
| 1778021555 | 1.67° C | 84% | 994 hPa | - | - | - | - |
| 1778020354 | 1.67° C | 87% | 993.9 hPa | - | - | - | - |
| 1778019153 | 1.67° C | 84% | 993.8 hPa | - | - | - | - |
| 1778016751 | 1.67° C | 87% | 993.6 hPa | - | - | - | - |
| 1778014349 | 2.22° C | 96% | 993.4 hPa | - | - | - | - |
* Rain since midnight (hover to see other rain measurements)
** Current wind speed in m/s (hover to see current wind gust speed)